Regional Weather Roundup
Issued by NWS

Home | Current Version | Previous Version | Text Only | Print | Product List | Glossary Off
Versions: 1 2 3 4 5 6 7 8 9 10 11 12 13 14 15 16 17 18 19 20 21 22 23 24 25 26 27 28 29 30 31 32 33 34 35 36 37 38 39 40 41 42 43 44 45 46 47 48 49 50

000
ASUS45 KABQ 211501
RWRNM
NEW MEXICO REGIONAL WEATHER ROUNDUP
NATIONAL WEATHER SERVICE ALBUQUERQUE NM
900 AM MDT FRI JUL 21 2017

NOTE: "FAIR" MEANS FEW OR NO CLOUDS BELOW 12,000 FEET AGL WITH NO
       SIGNIFICANT WEATHER OR OBSTRUCTIONS TO VISION.

      THIS PRODUCT IS RELEASED AS TWO VERSIONS.  ONE VERSION NEAR
      THE TOP OF THE HOUR CONTAINING PRELIMINARY DATA FROM ALBUQUERQUE
      AND OTHER STATIONS.  A FINAL VERSION WITH ADDITIONAL DATA IS
      ISSUED ABOUT 10 MINUTES AFTER THE HOUR.

NMZ501-503-504-510>518-211600-
NORTHWEST PLATEAU/NORTHCENTRAL MOUNTAINS

CITY           SKY/WX    TMP DP  RH WIND       PRES   REMARKS
FARMINGTON     FAIR      72  57  59 VRB5      30.22R
LOS ALAMOS     FAIR      71  49  46 NE6       30.35S
SANTA FE       FAIR      73  55  53 W5        30.28F
TAOS           FAIR      70  46  43 CALM      30.35F
ANGEL FIRE     FAIR      63  51  64 CALM      30.43F

$$
NMZ402-403-502-505>509-211600-
WESTCENTRAL MOUNTAINS/SOUTHWEST MOUNTAINS

CITY           SKY/WX    TMP DP  RH WIND       PRES   REMARKS
GALLUP         CLOUDY    67  57  70 CALM      30.29R
GRANTS         CLOUDY    67  54  63 CALM      30.32S
SILVER CITY    CLOUDY    64  62  93 SE5       30.25R

$$
NMZ407-409-411-412-211600-
SOUTHERN DESERTS

CITY           SKY/WX    TMP DP  RH WIND       PRES   REMARKS
DEMING         FAIR      71  66  84 CALM      30.19R
LAS CRUCES     PTSUNNY   72  64  77 CALM      30.19S
HOLLOMAN AFB   FAIR      80  64  58 SW3       30.18R
ALAMOGORDO     FAIR      77  59  53 S9        30.18S
T OR C         CLOUDY    70  57  63 CALM      30.21R

$$
NMZ519>523-211600-
CENTRAL VALLEYS/CENTRAL HIGHLANDS

CITY           SKY/WX    TMP DP  RH WIND       PRES   REMARKS
ALBUQUERQUE    FAIR      74  55  51 CALM      30.24R
DOUBLE EAGLE   MOSUNNY   75  54  46 CALM      30.27
MORIARTY ARPT  FAIR      72  58  60 CALM      30.30F
CLINES CORNERS FAIR      72  52  49 NW5       30.33S
BELEN          NOT AVBL
SOCORRO        FAIR      74  57  56 CALM      30.21S

$$
NMZ524>526-539-540-211600-
SOUTHCENTRAL MOUNTAINS

CITY           SKY/WX    TMP DP  RH WIND       PRES   REMARKS
RUIDOSO        FAIR      68  55  64 SE5       30.35S

$$
NMZ527>531-211600-
NORTHEAST HIGHLANDS/NORTHEAST PLAINS

CITY           SKY/WX    TMP DP  RH WIND       PRES   REMARKS
LAS VEGAS      FAIR      72  49  44 CALM      30.30S
RATON          FAIR      73  49  42 E3        30.24S
CLAYTON        FAIR      82  55  39 SW16G24   30.15S

$$
NMZ532>537-211600-
EASTCENTRAL PLAINS

CITY           SKY/WX    TMP DP  RH WIND       PRES   REMARKS
SANTA ROSA     FAIR      80  55  42 SE6       30.17F
TUCUMCARI      FAIR      87  56  34 SW16      30.10F
CANNON AFB     FAIR      80  56  43 SW6       30.18S
CLOVIS AIRPORT FAIR      82  60  47 SW14      30.17S

$$
NMZ028-029-538-211600-
SOUTHEAST PLAINS

CITY           SKY/WX    TMP DP  RH WIND       PRES   REMARKS
ROSWELL        FAIR      80  56  43 S5        30.11F
ARTESIA        FAIR      79  59  50 VRB5      30.11F
CARLSBAD       FAIR      80  60  50 VRB3      30.08S
HOBBS          SUNNY     81  59  47 SE12      30.13F


$$



USA.gov is the U.S. government's official web portal to all federal, state and local government web resources and services.